Date String (YYYY-MM-DD hh:mm:ss) UTC,Instrument flags,Ambient pressure (hPa),Sample flow (lpm),Bypass flow (lpm),Sample temperature (°C),Ambient temperature (°C),ASC tube jacket temperature (°C),LED temperature (°C),Box temperature (°C),Sample RH (%),Span deviation,Mass concentration (μg/m³),Mass concentration (μg/m³),Mass concentration (μg/m³)
DateTimeUTC,F1_M11,P_M11,Q1_M11,Q2_M11,T1_M11,T2_M11,T3_M11,T4_M11,T5_M11,U1_M11,ZSPAN_M11,X0_M11,X2_M11,X1_M11
2021-08-24 06:00:00,,0826.3,5.00,0.00,29.6,28.7,00.0,38.5,31.4,10.0,0000.0,0004.28,0001.70,0001.35
2021-08-24 06:01:00,,0826.3,5.00,0.00,29.6,28.7,00.0,38.6,31.4,10.0,0000.0,0004.29,0001.67,0001.34
2021-08-24 06:02:00,,0826.4,5.00,0.00,29.6,28.8,00.0,38.6,31.5,10.1,0000.0,0004.42,0001.67,0001.33
2021-08-24 06:03:00,,0826.4,5.00,0.00,29.7,28.9,00.0,38.6,31.5,10.2,0000.0,0004.47,0001.68,0001.33
2021-08-24 06:04:00,,0826.4,5.00,0.00,29.7,28.9,00.0,38.6,31.6,10.0,0000.0,0004.51,0001.70,0001.34
2021-08-24 06:05:00,,0826.4,5.01,0.00,29.8,29.0,00.0,38.7,31.6,10.0,0000.0,0003.69,0001.72,0001.34
2021-08-24 06:06:00,,0826.4,4.99,0.00,29.8,28.3,00.0,38.7,31.4,10.1,0000.0,0003.49,0001.76,0001.35
2021-08-24 06:07:00,,0826.3,4.99,0.00,29.6,26.2,00.0,38.7,30.9,10.0,0000.0,0003.39,0001.74,0001.34
2021-08-24 06:08:00,,0826.3,5.00,0.00,29.4,25.5,00.0,38.6,30.6,09.8,0000.0,0003.47,0001.73,0001.32
2021-08-24 06:09:00,,0826.2,5.01,0.00,29.3,25.8,00.0,38.6,30.7,09.8,0000.0,0004.25,0001.68,0001.31
2021-08-24 06:10:00,,0826.3,5.00,0.00,29.3,26.3,00.0,38.5,30.8,10.0,0000.0,0003.87,0001.65,0001.29
2021-08-24 06:11:00,,0826.2,5.01,0.00,29.3,26.8,00.0,38.5,30.8,10.0,0000.0,0003.81,0001.62,0001.28
2021-08-24 06:12:00,,0826.2,5.01,0.00,29.3,27.2,00.0,38.5,30.9,10.1,0000.0,0003.78,0001.60,0001.28
2021-08-24 06:13:00,,0826.3,4.99,0.00,29.3,27.5,00.0,38.5,31.0,10.3,0000.0,0003.57,0001.60,0001.27
2021-08-24 06:14:00,,0826.3,4.99,0.00,29.3,27.8,00.0,38.5,31.1,10.3,0000.0,0003.56,0001.59,0001.27
2021-08-24 06:15:00,,0826.3,5.01,0.00,29.4,28.0,00.0,38.5,31.1,10.3,0000.0,0003.51,0001.56,0001.26
2021-08-24 06:16:00,,0826.4,5.00,0.00,29.4,28.2,00.0,38.5,31.2,10.4,0000.0,0004.30,0001.56,0001.26
2021-08-24 06:17:00,,0826.4,5.00,0.00,29.4,28.3,00.0,38.5,31.3,10.5,0000.0,0004.85,0001.53,0001.26
2021-08-24 06:18:00,,0826.5,4.99,0.00,29.5,28.4,00.0,38.5,31.3,10.1,0000.0,0005.11,0001.48,0001.26
2021-08-24 06:19:00,,0826.5,5.01,0.00,29.5,28.5,00.0,38.5,31.4,10.0,0000.0,0005.02,0001.48,0001.27
2021-08-24 06:20:00,,0826.5,4.99,0.00,29.5,28.6,00.0,38.5,31.4,09.9,0000.0,0004.40,0001.50,0001.28
2021-08-24 06:21:00,,0826.4,4.99,0.00,29.6,28.7,00.0,38.5,31.4,10.2,0000.0,0003.79,0001.49,0001.28
2021-08-24 06:22:00,,0826.5,5.00,0.00,29.6,28.8,00.0,38.6,31.5,10.1,0000.0,0003.71,0001.49,0001.28
2021-08-24 06:23:00,,0826.5,5.01,0.00,29.6,28.8,00.0,38.6,31.5,10.3,0000.0,0003.70,0001.53,0001.29
2021-08-24 06:24:00,,0826.5,5.01,0.00,29.7,28.9,00.0,38.6,31.6,10.3,0000.0,0003.65,0001.50,0001.28
2021-08-24 06:25:00,,0826.5,5.00,0.00,29.7,28.9,00.0,38.6,31.6,10.1,0000.0,0003.61,0001.50,0001.29
2021-08-24 06:26:00,,0826.5,5.00,0.00,29.8,29.0,00.0,38.7,31.7,10.2,0000.0,0003.60,0001.52,0001.31
2021-08-24 06:27:00,,0826.5,5.00,0.00,29.8,28.7,00.0,38.7,31.6,10.0,0000.0,0002.98,0001.54,0001.33
2021-08-24 06:28:00,,0826.5,5.00,0.00,29.7,26.9,00.0,38.7,31.1,10.2,0000.0,0002.25,0001.57,0001.34
2021-08-24 06:29:00,,0826.5,4.99,0.00,29.6,26.3,00.0,38.7,30.9,10.8,0000.0,0002.08,0001.58,0001.34
2021-08-24 06:30:00,,0826.5,5.00,0.00,29.5,26.6,00.0,38.6,31.0,10.5,0000.0,0002.20,0001.61,0001.35
2021-08-24 06:31:00,,0826.5,5.00,0.00,29.4,27.0,00.0,38.6,31.0,10.6,0000.0,0002.29,0001.64,0001.37
2021-08-24 06:32:00,,0826.5,5.01,0.00,29.4,27.3,00.0,38.6,31.1,10.0,0000.0,0002.82,0001.66,0001.38
2021-08-24 06:33:00,,0826.5,4.99,0.00,29.4,27.6,00.0,38.6,31.1,09.9,0000.0,0003.28,0001.68,0001.40
2021-08-24 06:34:00,,0826.5,5.01,0.00,29.5,27.9,00.0,38.6,31.2,09.9,0000.0,0003.24,0001.68,0001.41
2021-08-24 06:35:00,,0826.5,4.99,0.00,29.5,28.1,00.0,38.6,31.3,09.9,0000.0,0003.27,0001.70,0001.43
2021-08-24 06:36:00,,0826.5,5.01,0.00,29.5,28.3,00.0,38.6,31.3,10.1,0000.0,0003.32,0001.72,0001.44
2021-08-24 06:37:00,,0826.5,5.00,0.00,29.5,28.4,00.0,38.6,31.4,10.0,0000.0,0003.33,0001.72,0001.44
2021-08-24 06:38:00,,0826.6,5.00,0.00,29.6,28.5,00.0,38.6,31.4,10.0,0000.0,0003.32,0001.72,0001.45
2021-08-24 06:39:00,,0826.7,4.99,0.00,29.6,28.6,00.0,38.6,31.5,11.9,0000.0,0003.31,0001.71,0001.45
2021-08-24 06:40:00,,0826.6,5.01,0.00,29.6,28.7,00.0,38.6,31.5,13.2,0000.0,0003.17,0001.70,0001.46
2021-08-24 06:41:00,,0826.7,5.00,0.00,29.7,28.8,00.0,38.7,31.5,13.4,0000.0,0003.04,0001.67,0001.47
2021-08-24 06:42:00,,0826.7,5.00,0.00,29.7,28.9,00.0,38.7,31.6,12.9,0000.0,0003.08,0001.67,0001.47
2021-08-24 06:43:00,,0826.7,5.00,0.00,29.8,28.9,00.0,38.7,31.6,11.5,0000.0,0002.65,0001.68,0001.47
2021-08-24 06:44:00,,0826.7,5.00,0.00,29.8,29.0,00.0,38.7,31.6,10.8,0000.0,0002.22,0001.65,0001.47
2021-08-24 06:45:00,,0826.7,5.01,0.00,29.8,29.0,00.0,38.7,31.7,10.8,0000.0,0002.29,0001.68,0001.47
2021-08-24 06:46:00,,0826.7,4.99,0.00,29.8,28.3,00.0,38.8,31.5,10.7,0000.0,0002.33,0001.69,0001.47
2021-08-24 06:47:00,,0826.7,4.99,0.00,29.7,26.6,00.0,38.7,31.0,10.4,0000.0,0002.36,0001.70,0001.48
2021-08-24 06:48:00,,0826.8,5.01,0.00,29.6,26.5,00.0,38.7,31.0,10.3,0000.0,0002.34,0001.69,0001.49
2021-08-24 06:49:00,,0826.7,5.00,0.00,29.5,26.8,00.0,38.7,31.1,10.5,0000.0,0002.38,0001.70,0001.48
2021-08-24 06:50:00,,0826.7,5.00,0.00,29.5,27.2,00.0,38.7,31.1,10.5,0000.0,0003.54,0001.70,0001.48
2021-08-24 06:51:00,,0826.7,4.99,0.00,29.5,27.5,00.0,38.6,31.2,10.9,0000.0,0003.76,0001.71,0001.48
2021-08-24 06:52:00,,0826.7,5.01,0.00,29.5,27.8,00.0,38.6,31.2,11.8,0000.0,0004.77,0001.73,0001.48
2021-08-24 06:53:00,,0826.7,5.00,0.00,29.5,28.1,00.0,38.6,31.3,11.7,0000.0,0005.32,0001.74,0001.48
2021-08-24 06:54:00,,0826.7,4.99,0.00,29.6,28.3,00.0,38.6,31.4,11.5,0000.0,0005.26,0001.74,0001.48
2021-08-24 06:55:00,,0826.7,5.00,0.00,29.6,28.4,00.0,38.7,31.4,11.4,0000.0,0005.38,0001.79,0001.49
2021-08-24 06:56:00,,0826.7,5.00,0.00,29.6,28.6,00.0,38.7,31.4,11.3,0000.0,0005.80,0001.82,0001.49
2021-08-24 06:57:00,,0826.7,4.99,0.00,29.7,28.7,00.0,38.7,31.5,11.9,0000.0,0006.12,0001.88,0001.52
2021-08-24 06:58:00,,0826.8,5.01,0.00,29.7,28.7,00.0,38.7,31.5,12.9,0000.0,0006.27,0001.96,0001.57
2021-08-24 06:59:00,,0826.8,5.01,0.00,29.7,28.8,00.0,38.7,31.6,13.5,0000.0,0007.22,0002.11,0001.62
